SB KEPS @ AMSAT $ORB15001.O Orbital Elements 15001.OSCAR
HR AMSAT ORBITAL ELEMENTS FOR OSCAR SATELLITES FROM WA5QGD FORT WORTH,TX January 1, 2015 BID: ORB15001.O TO ALL RADIO AMATEURS BT
Satellite: AO-07 Catalog number: 07530 Epoch time: 14365.96416624 Element set: 157 Inclination: 101.4991 deg RA of node: 341.4640 deg Eccentricity: 0.0011635 Arg of perigee: 269.4368 deg Mean anomaly: 124.4812 deg Mean motion: 12.53610824 rev/day Decay rate: -4.5e-07 rev/day^2 Epoch rev: 83630 Checksum: 288
Satellite: FO-29 Catalog number: 24278 Epoch time: 15001.49607435 Element set: 547 Inclination: 098.5207 deg RA of node: 353.0106 deg Eccentricity: 0.0351239 Arg of perigee: 143.0074 deg Mean anomaly: 016.7622 deg Mean motion: 13.53040027 rev/day Decay rate: -1.8e-07 rev/day^2 Epoch rev: 90748 Checksum: 284
Satellite: SO-33 Catalog number: 25509 Epoch time: 15001.66873963 Element set: 914 Inclination: 031.4319 deg RA of node: 115.5772 deg Eccentricity: 0.0348469 Arg of perigee: 053.6253 deg Mean anomaly: 086.8606 deg Mean motion: 14.29789416 rev/day Decay rate: 3.49e-06 rev/day^2 Epoch rev: 84557 Checksum: 343
Satellite: RS-22 Catalog number: 27939 Epoch time: 15001.93484858 Element set: 181 Inclination: 097.8205 deg RA of node: 171.4445 deg Eccentricity: 0.0012714 Arg of perigee: 193.1190 deg Mean anomaly: 166.9680 deg Mean motion: 14.65681489 rev/day Decay rate: 1.279e-05 rev/day^2 Epoch rev: 60183 Checksum: 330
Satellite: HO-68 Catalog number: 36122 Epoch time: 15001.71443184 Element set: 263 Inclination: 100.2208 deg RA of node: 052.2836 deg Eccentricity: 0.0007849 Arg of perigee: 143.0503 deg Mean anomaly: 217.1162 deg Mean motion: 13.16322296 rev/day Decay rate: -6.0e-07 rev/day^2 Epoch rev: 24255 Checksum: 252
Satellite: AO-73 Catalog number: 39444 Epoch time: 15001.69133335 Element set: 346 Inclination: 097.7537 deg RA of node: 070.4616 deg Eccentricity: 0.0059726 Arg of perigee: 318.9522 deg Mean anomaly: 040.7203 deg Mean motion: 14.79379227 rev/day Decay rate: 2.132e-05 rev/day^2 Epoch rev: 5879 Checksum: 321
Satellite: EO-79 Catalog number: 40025 Epoch time: 15001.77869231 Element set: 579 Inclination: 097.9668 deg RA of node: 261.7450 deg Eccentricity: 0.0013974 Arg of perigee: 014.0577 deg Mean anomaly: 346.0987 deg Mean motion: 14.86284966 rev/day Decay rate: 3.506e-05 rev/day^2 Epoch rev: 2907 Checksum: 348
/EX SB KEPS @ AMSAT $ORB15001.D Orbital Elements 15001.MICROS
HR AMSAT ORBITAL ELEMENTS FOR THE MICROSATS FROM WA5QGD FORT WORTH,TX January 1, 2015 BID: ORB15001.D TO ALL RADIO AMATEURS BT
Satellite: UO-11 Catalog number: 14781 Epoch time: 15001.69778514 Element set: 704 Inclination: 097.8259 deg RA of node: 062.7028 deg Eccentricity: 0.0007471 Arg of perigee: 248.7523 deg Mean anomaly: 111.2893 deg Mean motion: 14.82058887 rev/day Decay rate: 8.06e-06 rev/day^2 Epoch rev: 65736 Checksum: 330
Satellite: AO-16 Catalog number: 20439 Epoch time: 15001.06479462 Element set: 207 Inclination: 098.5278 deg RA of node: 299.8511 deg Eccentricity: 0.0009716 Arg of perigee: 296.6088 deg Mean anomaly: 126.0985 deg Mean motion: 14.32465240 rev/day Decay rate: 1.65e-06 rev/day^2 Epoch rev: 30281 Checksum: 313
Satellite: LO-19 Catalog number: 20442 Epoch time: 14365.80154298 Element set: 140 Inclination: 098.4987 deg RA of node: 299.6531 deg Eccentricity: 0.0010609 Arg of perigee: 284.3987 deg Mean anomaly: 075.6019 deg Mean motion: 14.32662038 rev/day Decay rate: 1.36e-06 rev/day^2 Epoch rev: 30297 Checksum: 324
Satellite: AO-27 Catalog number: 22825 Epoch time: 15001.46476574 Element set: 856 Inclination: 098.6890 deg RA of node: 311.7310 deg Eccentricity: 0.0009512 Arg of perigee: 079.8819 deg Mean anomaly: 059.1377 deg Mean motion: 14.29813053 rev/day Decay rate: 1.35e-06 rev/day^2 Epoch rev: 10911 Checksum: 311
Satellite: IO-26 Catalog number: 22826 Epoch time: 15001.46095179 Element set: 613 Inclination: 098.6832 deg RA of node: 311.9168 deg Eccentricity: 0.0009978 Arg of perigee: 072.6948 deg Mean anomaly: 287.5325 deg Mean motion: 14.30122828 rev/day Decay rate: 1.48e-06 rev/day^2 Epoch rev: 10925 Checksum: 323
Satellite: GO-32 Catalog number: 25397 Epoch time: 15001.46707808 Element set: 534 Inclination: 098.4989 deg RA of node: 317.3409 deg Eccentricity: 0.0002443 Arg of perigee: 097.3920 deg Mean anomaly: 041.0118 deg Mean motion: 14.23503472 rev/day Decay rate: 5.7e-07 rev/day^2 Epoch rev: 85607 Checksum: 302
Satellite: NO-44 Catalog number: 26931 Epoch time: 14365.88536819 Element set: 787 Inclination: 067.0509 deg RA of node: 248.6198 deg Eccentricity: 0.0007065 Arg of perigee: 268.7981 deg Mean anomaly: 091.2311 deg Mean motion: 14.30231740 rev/day Decay rate: 1.15e-06 rev/day^2 Epoch rev: 69187 Checksum: 332
Satellite: SO-50 Catalog number: 27607 Epoch time: 15001.94439528 Element set: 620 Inclination: 064.5567 deg RA of node: 346.2513 deg Eccentricity: 0.0070040 Arg of perigee: 321.6127 deg Mean anomaly: 038.0495 deg Mean motion: 14.74319118 rev/day Decay rate: 1.197e-05 rev/day^2 Epoch rev: 64677 Checksum: 301
Satellite: CO-55 Catalog number: 27844 Epoch time: 14365.69898668 Element set: 105 Inclination: 098.6967 deg RA of node: 011.6228 deg Eccentricity: 0.0010582 Arg of perigee: 068.8416 deg Mean anomaly: 344.9769 deg Mean motion: 14.21673202 rev/day Decay rate: 3.13e-06 rev/day^2 Epoch rev: 59664 Checksum: 351
Satellite: CO-57 Catalog number: 27848 Epoch time: 14365.55033095 Element set: 44 Inclination: 098.7063 deg RA of node: 011.2950 deg Eccentricity: 0.0010574 Arg of perigee: 075.8377 deg Mean anomaly: 044.7953 deg Mean motion: 14.21338367 rev/day Decay rate: 2.52e-06 rev/day^2 Epoch rev: 59653 Checksum: 320
Satellite: AO-51 Catalog number: 28375 Epoch time: 15001.66394472 Element set: 28 Inclination: 098.2763 deg RA of node: 307.0652 deg Eccentricity: 0.0084172 Arg of perigee: 112.4523 deg Mean anomaly: 248.5608 deg Mean motion: 14.41543540 rev/day Decay rate: 2.07e-06 rev/day^2 Epoch rev: 55250 Checksum: 287
Satellite: CP3 Catalog number: 31129 Epoch time: 15001.17151890 Element set: 937 Inclination: 097.9598 deg RA of node: 334.4478 deg Eccentricity: 0.0098804 Arg of perigee: 114.0244 deg Mean anomaly: 013.5919 deg Mean motion: 14.55307152 rev/day Decay rate: 9.93e-06 rev/day^2 Epoch rev: 40882 Checksum: 315
Satellite: CO-65 Catalog number: 32785 Epoch time: 15001.17602971 Element set: 154 Inclination: 097.6735 deg RA of node: 050.7540 deg Eccentricity: 0.0012293 Arg of perigee: 255.2217 deg Mean anomaly: 141.3214 deg Mean motion: 14.86173727 rev/day Decay rate: 1.770e-05 rev/day^2 Epoch rev: 36142 Checksum: 287
Satellite: PRISM Catalog number: 33493 Epoch time: 15001.89313325 Element set: 632 Inclination: 098.2521 deg RA of node: 191.3382 deg Eccentricity: 0.0017070 Arg of perigee: 152.5990 deg Mean anomaly: 207.6108 deg Mean motion: 14.91565568 rev/day Decay rate: 7.059e-05 rev/day^2 Epoch rev: 32177 Checksum: 297
Satellite: SOHLA-1 Catalog number: 33496 Epoch time: 14365.95106650 Element set: 551 Inclination: 098.1908 deg RA of node: 127.6794 deg Eccentricity: 0.0005572 Arg of perigee: 345.0100 deg Mean anomaly: 154.4792 deg Mean motion: 14.71121452 rev/day Decay rate: 4.97e-06 rev/day^2 Epoch rev: 31858 Checksum: 306
Satellite: TISAT-1 Catalog number: 36799 Epoch time: 15001.23073587 Element set: 820 Inclination: 098.0168 deg RA of node: 099.8704 deg Eccentricity: 0.0013888 Arg of perigee: 039.4807 deg Mean anomaly: 017.6910 deg Mean motion: 14.87219580 rev/day Decay rate: 3.461e-05 rev/day^2 Epoch rev: 24213 Checksum: 319
Satellite: STUDSAT Catalog number: 36801 Epoch time: 15001.20914503 Element set: 970 Inclination: 098.0517 deg RA of node: 112.6087 deg Eccentricity: 0.0006431 Arg of perigee: 344.1509 deg Mean anomaly: 075.0353 deg Mean motion: 15.04031943 rev/day Decay rate: 1.8235e-04 rev/day^2 Epoch rev: 24280 Checksum: 255
Satellite: ALMASAT-1 Catalog number: 38078 Epoch time: 15001.87568157 Element set: 253 Inclination: 069.4612 deg RA of node: 295.4735 deg Eccentricity: 0.0531087 Arg of perigee: 125.9144 deg Mean anomaly: 239.3014 deg Mean motion: 14.65005738 rev/day Decay rate: 1.9991e-04 rev/day^2 Epoch rev: 15056 Checksum: 319
Satellite: XATCOBEO Catalog number: 38082 Epoch time: 14243.34478676 Element set: 563 Inclination: 069.3815 deg RA of node: 097.0364 deg Eccentricity: 0.0033293 Arg of perigee: 225.1799 deg Mean anomaly: 135.4582 deg Mean motion: 16.41261006 rev/day Decay rate: 1.3583328e-01 rev/day^2 Epoch rev: 13623 Checksum: 317
Satellite: CUBEBUG-1 Catalog number: 39153 Epoch time: 15001.17267325 Element set: 759 Inclination: 098.0300 deg RA of node: 086.0193 deg Eccentricity: 0.0018753 Arg of perigee: 074.7090 deg Mean anomaly: 285.6192 deg Mean motion: 14.78563028 rev/day Decay rate: 1.463e-05 rev/day^2 Epoch rev: 9079 Checksum: 306
Satellite: ESTCUBE-1 Catalog number: 39161 Epoch time: 15001.74387300 Element set: 807 Inclination: 098.0851 deg RA of node: 086.1070 deg Eccentricity: 0.0010659 Arg of perigee: 121.0792 deg Mean anomaly: 239.1416 deg Mean motion: 14.70658081 rev/day Decay rate: 2.074e-05 rev/day^2 Epoch rev: 8877 Checksum: 289
Satellite: DUCHIFAT-1 Catalog number: 40021 Epoch time: 15001.68020699 Element set: 582 Inclination: 097.9672 deg RA of node: 261.7617 deg Eccentricity: 0.0014553 Arg of perigee: 015.3145 deg Mean anomaly: 344.8510 deg Mean motion: 14.86772258 rev/day Decay rate: 4.579e-05 rev/day^2 Epoch rev: 2905 Checksum: 302
Satellite: NANOSATCBR1 Catalog number: 40024 Epoch time: 15001.90140035 Element set: 572 Inclination: 097.9658 deg RA of node: 261.8968 deg Eccentricity: 0.0013652 Arg of perigee: 014.0370 deg Mean anomaly: 346.1214 deg Mean motion: 14.86520916 rev/day Decay rate: 4.260e-05 rev/day^2 Epoch rev: 2908 Checksum: 272
Satellite: DTUSAT-2 Catalog number: 40030 Epoch time: 15001.76076861 Element set: 565 Inclination: 097.9661 deg RA of node: 261.5931 deg Eccentricity: 0.0012912 Arg of perigee: 009.3416 deg Mean anomaly: 350.8024 deg Mean motion: 14.85893721 rev/day Decay rate: 3.393e-05 rev/day^2 Epoch rev: 2906 Checksum: 290
